www.pogodaiklimat.ru

Погода и климат >> Архив погоды >> Индия >> Imphal


ПОГОДА в Imphal

  • Прогноз погоды в Imphal
  • Монитор погоды в Imphal
  • Климат города

АРХИВ ПОГОДЫ в Imphal

Время (UTC), дата Ветер
(напр.,м/с)
 
Видим.   Явления Облачность Т
(С)
Тd
(С)
f
(%)
Тe
(С)
Тes
(С)
Комфортность P
(гПа)
Po
(гПа)
Тmin
(С)
Tmax
(С)
R
(мм)
R24
(мм)
S
(см)
06 13.01 ЮВ 2 2000 м мгла {туман} 4/4 600 м
[Sc diur, vesp]
+17.2 +11.6 70 +18 +25 1012.9 925.4
09 13.01 Ю 2 4000 м мгла 3/3 600 м
[Sc]
+21.2 +12.0 56 +23 +26 комфорт 1008.2 922.3
12 13.01 штиль 0 50 км мгла ?/? +17.2 +11.6 70 +17 +17 1009.7 922.5 +21.6
15 13.01 штиль 0 4000 м дымка 3/3 600 м
[Sc]
+13.2 +11.4 89 +13 +13 1013.3 924.6
00 14.01 штиль 0 2000 м дымка 6/5 540 м
[Sc Ac trans]
+6.2 +5.8 97 +5 +5 1017.3 926.2
03 14.01 штиль 0 2000 м дымка 5/5 540 м
[Sc]
+13.4 +10.9 85 +13 +17 1017.0 928.2 +6.0
06 14.01 штиль 0 2000 м мгла 4/3 540 м
[Sc Ac trans]
+19.0 +12.1 64 +20 +29 1013.0 925.8
09 14.01 Ю 2 4000 м мгла 6/5 600 м
[Sc diur, vesp Ac trans]
+21.4 +13.4 60 +24 +26 комфорт 1009.2 923.1
12 14.01 ЮВ 1 2000 м дымка 6/4 540 м
[Sc Ac trans]
+17.2 +13.7 80 +18 +18 1011.3 924.0 +22.3
15 14.01 СЗ 1 2000 м дымка 4/1 540 м
[Sc Ac trans]
+12.0 +10.1 88 +13 +13 1015.2 925.8
00 15.01 штиль 0 200 м туман 8/8 180 м
[St]
+8.0 +7.6 97 +7 +7 1016.4 925.6
03 15.01 Ю 1 1000 м дымка {туман} 8/4 540 м
[Sc Ac trans]
+10.0 +10.0 100 +10 +13 1017.4 927.2 +7.0
06 15.01 штиль 0 50 км мгла ?/? +19.0 +14.0 73 +20 +20 1012.4 925.2
09 15.01 штиль 0 4000 м мгла 4/4 600 м
[Sc]
+22.0 +11.8 52 +24 +27 комфорт 1008.1 922.2
12 15.01 штиль 0 4000 м мгла 4/3 600 м
[Sc Ac trans]
+17.4 +11.4 68 +17 +17 1009.2 922.1 +22.3
15 15.01 штиль 0 4000 м дымка 3/3 600 м
[Sc]
+11.8 +9.5 86 +11 +11 1013.2 924.0
03 16.01 штиль 0 2000 м дымка 5/4 600 м
[Sc Ac trans]
+13.2 +11.4 89 +13 +17 1016.1 927.3 +7.3
06 16.01 штиль 0 4000 м мгла 4/4 540 м
[Sc]
+18.6 +11.7 64 +19 +28 1012.9 925.7
09 16.01 ЮВ 2 4000 м мгла 5/5 540 м
[Sc diur, vesp]
+22.4 +13.5 57 +25 +27 комфорт 1007.7 922.1
12 16.01 В 1 4000 м дымка 4/3 600 м
[Sc Ac trans]
+16.6 +13.2 80 +17 +17 1009.8 922.4 +22.5
15 16.01 З 1 2000 м дымка 3/3 600 м
[Sc]
+12.8 +11.4 91 +14 +14 1013.7 924.8
00 17.01 штиль 0 2000 м дымка 4/3 600 м
[Sc Ac trans]
+8.4 +8.0 97 +7 +7 1015.3 924.7
03 17.01 штиль 0 2000 м дымка 8/4 540 м
[Sc Ac trans]
+13.4 +11.6 89 +13 +16 1015.5 926.7 +8.2
06 17.01 штиль 0 4000 м мгла 8/4 540 м
[Sc Ac trans]
+21.2 +13.2 60 +24 +29 комфорт 1011.4 925.3
09 17.01 В 3 4000 м мгла 5/4 600 м
[Sc diur, vesp Ac trans]
+22.4 +12.3 53 +25 +27 комфорт 1008.2 922.6
12 17.01 ЮЗ 1 4000 м 4/1 600 м
[Sc Ac trans]
+17.6 +13.5 77 +19 +19 1009.9 922.8 +22.7
15 17.01 С 1 4000 м дымка 3/3 600 м
[Sc]
+12.6 +11.1 91 +13 +13 1013.6 924.7
00 18.01 штиль 0 2000 м дымка 4/1 540 м
[Sc Ac trans]
+9.0 +8.6 97 +8 +8 1014.6 925.4
03 18.01 штиль 0 2000 м дымка 4/1 600 м
[Sc Ac trans]
+13.2 +11.0 87 +13 +18 1016.5 927.6 +6.6
06 18.01 Ю 1 2000 м мгла 3/3 600 м
[Sc]
+18.6 +13.2 71 +20 +29 1013.0 925.8
09 18.01 Ю 2 4000 м мгла 3/3 600 м
[Sc]
+22.2 +12.8 55 +25 +28 комфорт 1008.9 923.2
12 18.01 ЮЗ 2 4000 м мгла 3/3 600 м
[Sc]
+18.4 +13.0 71 +20 +20 1010.6 923.6 +23.0
15 18.01 штиль 0 4000 м дымка 3/3 600 м
[Sc]
+14.0 +11.9 87 +14 +14 1014.7 926.0
00 19.01 штиль 0 2000 м дымка 8/5 540 м
[Sc Ac trans]
+7.6 +6.8 95 +7 +7 1017.0 926.3
03 19.01 штиль 0 2000 м дымка 3/3 540 м
[Sc]
+14.2 +11.0 81 +14 +19 1016.9 928.3 +7.4
06 19.01 штиль 0 2000 м мгла 3/3 540 м
[Sc]
+20.2 +15.0 72 +22 +33 комфорт 1013.0 926.4
09 19.01 Ю 2 4000 м мгла 4/3 540 м
[Sc Ac trans]
+23.0 +12.6 52 +26 +28 жарко 1009.7 923.9
12 19.01 З 1 2000 м мгла 3/3 540 м
[Sc]
+19.0 +12.1 64 +22 +22 комфорт 1011.3 924.3 +23.8
15 19.01 ЮЗ 1 4000 м дымка 3/3 540 м
[Sc]
+14.8 +13.8 94 +16 +16 1014.8 926.4
00 20.01 штиль 0 4000 м дымка 6/4 540 м
[Sc Ac trans]
+7.8 +7.4 97 +7 +7 1015.8 925.1

 

Местоположение метеостанции Imphal (Manipur, Индия): широта 24.67 долгота 93.90 высота над уровнем моря 774 м.

В архиве по умолчанию представлена погода в Imphal за последнюю неделю. Архивные данные за месяц целиком и за предыдущие месяцы, начиная с января 2011 года, Вы можете получить, выбрав интересующий диапазон дат из раскрывающегося списка и нажав кнопку "Ввод!".

Внимание! Время в таблицах - всемирное. Для получения местного времени необходимо прибавить поправку, которая в Imphal равна 5.5 ч.

Смотрите также архив погоды в соседних городах и на ближайших метеорологических станциях:

Погода в Haflong (Assam, Индия) (105 км)
Погода в Homalin (Мьянма) (105 км)
Погода в Kohima (Nagaland, Индия) (110 км)
Погода в Silchar (Assam, Индия) (112 км)
Погода в Mawlaik (Мьянма) (127 км)
Погода в Lumding (Assam, Индия) (140 км)
Погода в Aijal (Mizoram, Индия) (159 км)
Погода в Lengpui (Mizoram, Индия) (160 км)
Погода в Kalewa (Мьянма) (168 км)
Погода в Falam (Мьянма) (196 км)

Пояснения к столбцам:

Ветер - указаны скорость ветра в м/с - средняя за 10 мин, порывы в срок и между сроками (в фигурных скобках) и направление, откуда дует ветер: С - северный, СВ - северо-восточный, В - восточный, ЮВ - юго-восточный, Ю - южный, ЮЗ - юго-западный, З - западный, СЗ - северо-западный.
Видимость - горизонтальная дальность видимости в метрах или километрах. При видимости от 1 до 10 км при отсутствии осадков обычно наблюдается дымка, при ухудшении видимости до 1 км и менее - туман. В сухую погоду видимость может ухудшаться дымом, пылью или мглою.
Явления - указаны атмосферные явления, наблюдавшиеся в срок или в последний час перед сроком; фигурными скобками обозначены явления, наблюдавшиеся между сроками (за 1-3 часа до срока); квадратными скобками обозначены град или гололедные отложения с указанием их диаметра в мм.
Облачность - указаны через наклонную черту общая и нижняя облачность в баллах и высота нижней границы облаков в метрах; квадратными скобками обозначены формы облаков: Ci - перистые, Cs - перисто-слоистые, Cc - перисто-кучевые, Ac - высококучевые, As - высокослоистые, Sc - слоисто-кучевые, Ns - слоисто-дождевые, Cu - кучевые, Cb - кучево-дождевые. Подробнее классификацию облаков см. в Атласе облаков (PDF).
T - Температура воздуха - температура, измеренная на высоте 2 м над землей.
Td - Температура точки росы - температура, при понижении до которой содержащийся в воздухе водяной пар достигнет насыщения.
f - Относительная влажность воздуха - влажноcть воздуха, измеренная на высоте 2 м над землей.
Te - Эффективная температура - температура, которую ощущает одетый по сезону человек в тени. Характеристика душности погоды. При расчете учитывается влияние влажности воздуха и скорости ветра на теплоощущения человека.
Tes - Эффективная температура на солнце - температура, которую ощущает человек, с поправкой на солнечный нагрев. Характеристика знойности погоды. Зависит от высоты солнца над горизонтом, облачности и скорости ветра. Ночью, в пасмурную погоду, а также при ветре 12 м/с и более поправка равна нулю.
P - Атмосферное давление - приведенное к уровню моря атмосферное давление.
Po - Атмосферное давление - измеренное на уровне метеостанции атмосферное давление.
Tmin - Минимальная температура - минимум температуры воздуха на высоте 2 м над землей.
Tmax - Максимальная температура - максимум температуры воздуха на высоте 2 м над землей.
R - Количество осадков - Количество выпавших осадков за период времени, мм. При наведении курсора мыши на число - период времени, за который выпало указанное количество осадков.
R24 - Количество осадков - Количество выпавших осадков за 24 часа, мм.
S - Снежный покров - Высота снежного покрова, см. При наведении курсора мыши на число - состояние снежного покрова и степень покрытия местности в баллах.